TimeCDT,TemperatureF,Dew PointF,Humidity,Sea Level PressureIn,VisibilityMPH,Wind Direction,Wind SpeedMPH,Gust SpeedMPH,PrecipitationIn,Events,Conditions,WindDirDegrees,DateUTC
12:15 AM,42.8,37.4,81,29.97,10.0,ESE,4.6,-,N/A,,Clear,120,2013-09-22 05:15:00
12:35 AM,42.8,37.4,81,29.97,10.0,ESE,3.5,-,N/A,,Clear,120,2013-09-22 05:35:00
12:55 AM,42.8,37.4,81,29.97,10.0,SE,4.6,-,N/A,,Clear,130,2013-09-22 05:55:00
1:15 AM,41.0,37.4,87,29.97,10.0,ESE,4.6,-,N/A,,Clear,120,2013-09-22 06:15:00
1:35 AM,41.0,35.6,81,29.97,10.0,SE,4.6,-,N/A,,Clear,130,2013-09-22 06:35:00
1:55 AM,41.0,35.6,81,29.97,10.0,SE,3.5,-,N/A,,Clear,140,2013-09-22 06:55:00
2:15 AM,41.0,35.6,81,29.97,10.0,ESE,5.8,-,N/A,,Clear,120,2013-09-22 07:15:00
2:35 AM,41.0,37.4,87,29.97,10.0,ESE,4.6,-,N/A,,Clear,120,2013-09-22 07:35:00
2:55 AM,41.0,37.4,87,29.97,10.0,SE,4.6,-,N/A,,Clear,130,2013-09-22 07:55:00
3:15 AM,41.0,37.4,87,29.97,10.0,ESE,5.8,-,N/A,,Clear,120,2013-09-22 08:15:00
3:35 AM,41.0,37.4,87,29.97,10.0,SE,4.6,-,N/A,,Clear,140,2013-09-22 08:35:00
3:55 AM,41.0,37.4,87,29.97,10.0,SE,4.6,-,N/A,,Clear,130,2013-09-22 08:55:00
4:15 AM,41.0,37.4,87,29.97,10.0,SE,5.8,-,N/A,,Clear,130,2013-09-22 09:15:00
4:35 AM,39.2,35.6,87,29.97,10.0,SE,4.6,-,N/A,,Clear,130,2013-09-22 09:35:00
4:55 AM,39.2,35.6,87,29.96,10.0,SE,4.6,-,N/A,,Clear,130,2013-09-22 09:55:00
5:15 AM,39.2,35.6,87,29.97,10.0,ESE,5.8,-,N/A,,Clear,120,2013-09-22 10:15:00
5:35 AM,39.2,35.6,87,29.97,10.0,SE,6.9,-,N/A,,Clear,130,2013-09-22 10:35:00
5:55 AM,39.2,35.6,87,29.97,10.0,SE,6.9,-,N/A,,Clear,130,2013-09-22 10:55:00
6:15 AM,39.2,35.6,87,29.97,10.0,SE,6.9,-,N/A,,Clear,140,2013-09-22 11:15:00
6:35 AM,39.2,35.6,87,29.97,10.0,SE,8.1,-,N/A,,Clear,140,2013-09-22 11:35:00
6:55 AM,39.2,35.6,87,29.97,10.0,SSE,9.2,-,N/A,,Clear,150,2013-09-22 11:55:00
7:15 AM,39.2,35.6,87,29.98,10.0,SE,10.4,-,N/A,,Clear,140,2013-09-22 12:15:00
7:35 AM,39.2,35.6,87,29.98,10.0,SE,9.2,-,N/A,,Clear,140,2013-09-22 12:35:00
7:55 AM,39.2,35.6,87,29.97,10.0,SE,9.2,16.1,N/A,,Clear,140,2013-09-22 12:55:00
8:15 AM,41.0,35.6,81,29.97,10.0,SE,8.1,-,N/A,,Clear,140,2013-09-22 13:15:00
8:35 AM,42.8,37.4,81,29.97,10.0,SE,10.4,-,N/A,,Clear,130,2013-09-22 13:35:00
8:55 AM,42.8,37.4,81,29.97,10.0,SE,9.2,-,N/A,,Clear,140,2013-09-22 13:55:00
9:15 AM,44.6,37.4,76,29.98,10.0,SE,11.5,16.1,N/A,,Clear,130,2013-09-22 14:15:00
9:35 AM,46.4,39.2,76,29.97,10.0,SSE,11.5,-,N/A,,Clear,150,2013-09-22 14:35:00
9:55 AM,46.4,39.2,76,29.98,10.0,SSE,12.7,18.4,N/A,,Clear,150,2013-09-22 14:55:00
10:15 AM,48.2,41.0,76,29.98,10.0,SE,13.8,17.3,N/A,,Clear,140,2013-09-22 15:15:00
10:35 AM,51.8,41.0,67,29.97,10.0,SSE,11.5,18.4,N/A,,Clear,150,2013-09-22 15:35:00
10:55 AM,53.6,42.8,67,29.96,10.0,SE,11.5,18.4,N/A,,Clear,140,2013-09-22 15:55:00
11:15 AM,53.6,42.8,67,29.96,10.0,SE,13.8,20.7,N/A,,Clear,140,2013-09-22 16:15:00
11:35 AM,55.4,42.8,63,29.95,10.0,SSE,12.7,20.7,N/A,,Clear,150,2013-09-22 16:35:00
11:55 AM,57.2,42.8,59,29.94,10.0,SE,9.2,20.7,N/A,,Clear,140,2013-09-22 16:55:00
12:15 PM,57.2,42.8,59,29.94,10.0,SE,9.2,18.4,N/A,,Clear,130,2013-09-22 17:15:00
12:35 PM,59.0,42.8,55,29.93,10.0,SE,13.8,23.0,N/A,,Clear,140,2013-09-22 17:35:00
12:55 PM,60.8,42.8,52,29.92,10.0,SE,10.4,21.9,N/A,,Clear,140,2013-09-22 17:55:00
1:15 PM,60.8,42.8,52,29.92,10.0,SSE,12.7,18.4,N/A,,Clear,150,2013-09-22 18:15:00
1:35 PM,60.8,42.8,52,29.91,10.0,SE,13.8,21.9,N/A,,Clear,140,2013-09-22 18:35:00
1:55 PM,62.6,44.6,52,29.91,10.0,SE,15.0,23.0,N/A,,Clear,140,2013-09-22 18:55:00
2:15 PM,62.6,44.6,52,29.90,10.0,SSE,10.4,18.4,N/A,,Clear,150,2013-09-22 19:15:00
2:35 PM,62.6,44.6,52,29.89,10.0,SE,15.0,21.9,N/A,,Clear,140,2013-09-22 19:35:00
2:55 PM,62.6,44.6,52,29.88,10.0,SE,11.5,21.9,N/A,,Clear,140,2013-09-22 19:55:00
3:15 PM,64.4,44.6,49,29.88,10.0,SE,12.7,19.6,N/A,,Clear,130,2013-09-22 20:15:00
3:35 PM,64.4,44.6,49,29.88,10.0,SE,11.5,21.9,N/A,,Clear,130,2013-09-22 20:35:00
3:55 PM,64.4,44.6,49,29.88,10.0,SE,10.4,21.9,N/A,,Clear,140,2013-09-22 20:55:00
4:15 PM,64.4,44.6,49,29.87,10.0,SE,11.5,19.6,N/A,,Clear,130,2013-09-22 21:15:00
4:35 PM,64.4,44.6,49,29.86,10.0,SE,11.5,19.6,N/A,,Clear,140,2013-09-22 21:35:00
4:55 PM,62.6,44.6,52,29.86,10.0,ESE,12.7,21.9,N/A,,Clear,120,2013-09-22 21:55:00
5:15 PM,62.6,44.6,52,29.85,10.0,SE,13.8,20.7,N/A,,Clear,130,2013-09-22 22:15:00
5:35 PM,62.6,44.6,52,29.86,10.0,SE,12.7,20.7,N/A,,Clear,140,2013-09-22 22:35:00
5:55 PM,62.6,44.6,52,29.86,10.0,SE,10.4,21.9,N/A,,Clear,140,2013-09-22 22:55:00
6:15 PM,62.6,44.6,52,29.86,10.0,SE,9.2,18.4,N/A,,Clear,130,2013-09-22 23:15:00
6:35 PM,60.8,44.6,55,29.86,10.0,SE,8.1,20.7,N/A,,Clear,130,2013-09-22 23:35:00
6:55 PM,59.0,44.6,59,29.86,10.0,SE,10.4,18.4,N/A,,Clear,130,2013-09-22 23:55:00
7:15 PM,57.2,44.6,63,29.86,10.0,SE,10.4,-,N/A,,Clear,130,2013-09-23 00:15:00
7:35 PM,55.4,44.6,67,29.86,10.0,SE,10.4,19.6,N/A,,Clear,130,2013-09-23 00:35:00
7:55 PM,55.4,44.6,67,29.87,10.0,SE,10.4,-,N/A,,Clear,130,2013-09-23 00:55:00
8:15 PM,53.6,44.6,72,29.87,10.0,SE,12.7,24.2,N/A,,Clear,130,2013-09-23 01:15:00
8:35 PM,53.6,44.6,72,29.87,10.0,SE,12.7,18.4,N/A,,Clear,140,2013-09-23 01:35:00
8:55 PM,53.6,42.8,67,29.87,10.0,SE,12.7,20.7,N/A,,Clear,130,2013-09-23 01:55:00
9:15 PM,51.8,42.8,71,29.87,10.0,SE,15.0,23.0,N/A,,Clear,130,2013-09-23 02:15:00
9:35 PM,51.8,42.8,71,29.88,10.0,SE,12.7,18.4,N/A,,Clear,140,2013-09-23 02:35:00
9:55 PM,51.8,42.8,71,29.88,10.0,SE,11.5,18.4,N/A,,Clear,130,2013-09-23 02:55:00
10:15 PM,50.0,42.8,76,29.88,10.0,SE,10.4,16.1,N/A,,Clear,140,2013-09-23 03:15:00
10:35 PM,50.0,44.6,82,29.87,10.0,SE,11.5,17.3,N/A,,Clear,140,2013-09-23 03:35:00
10:55 PM,50.0,44.6,82,29.87,10.0,SE,10.4,16.1,N/A,,Clear,140,2013-09-23 03:55:00
11:15 PM,48.2,44.6,87,29.87,10.0,SE,10.4,-,N/A,,Clear,130,2013-09-23 04:15:00
11:35 PM,48.2,44.6,87,29.87,10.0,SE,8.1,-,N/A,,Clear,130,2013-09-23 04:35:00
11:55 PM,48.2,44.6,87,29.87,10.0,SE,10.4,-,N/A,,Clear,130,2013-09-23 04:55:00